Dewpoint
61 61 57 48 38 38 34 31 38 31 31 29 29 29 30 39 43 43 62 68 69 72 73 74 75 75 75 75 75 74 74 74 74 72 72 71 71 70 69 68 67 66 65 64 64 63 62 64 65
60 57 54 45 33 33 30 35 32 33 33 32 29 34 46 52 58 64 66 70 71 72 73 74 75 75 75 75 75 74 74 74 74 72 72 71 71 71 69 69 67 67 64 64 64 63 64 64 66
61 58 50 44 38 31 32 34 32 33 34 32 29 37 47 54 62 65 68 71 71 72 73 73 75 75 75 75 75 74 74 74 74 73 72 71 70 70 69 70 68 66 64 65 63 65 66 66 66
57 55 50 40 38 37 34 34 35 37 36 32 31 50 56 59 62 64 70 71 71 71 72 74 74 75 75 75 74 74 74 73 73 73 71 70 69 69 70 70 68 67 66 65 64 65 66 66 66
53 49 44 41 38 35 37 35 38 36 36 34 30 42 54 61 67 70 70 71 71 71 73 73 74 75 75 74 74 74 74 73 73 72 70 69 68 68 69 70 68 66 65 65 64 65 65 65 65
48 47 42 39 37 39 37 38 39 39 38 36 30 50 54 63 68 69 70 70 70 71 72 73 73 74 74 74 74 73 73 73 72 71 69 68 68 68 69 69 68 66 66 66 65 65 65 65 65
45 41 38 38 38 38 39 40 39 40 39 38 32 49 56 60 68 69 69 70 69 71 72 72 73 72 72 73 73 73 72 71 71 71 70 70 70 69 69 69 68 67 66 66 66 65 65 65 64
49 42 37 38 38 38 39 44 44 42 40 37 37 46 54 60 67 67 69 70 70 71 71 72 72 72 72 72 72 71 71 70 70 69 69 69 69 69 70 69 69 68 68 68 66 66 65 65 64
49 40 36 38 39 39 41 45 43 44 41 41 37 51 57 64 67 67 67 69 69 70 70 69 71 71 71 71 70 70 69 69 68 67 67 66 67 67 68 67 68 68 69 68 66 66 66 66 65
47 41 38 38 40 40 45 44 42 40 40 40 40 61 62 66 65 65 65 67 67 68 68 69 69 69 71 70 69 67 67 66 65 65 64 65 65 66 67 66 67 68 68 68 67 66 67 64 61
45 40 40 38 38 37 41 43 44 46 43 42 40 49 61 64 64 64 65 66 67 68 67 68 68 69 70 69 68 67 66 65 64 63 63 63 64 64 65 65 66 65 64 64 65 65 63 60 59
42 43 41 41 41 39 37 39 40 44 42 43 42 42 56 61 63 64 64 65 66 67 66 67 68 68 69 69 68 67 66 64 63 62 62 61 61 62 62 63 63 63 63 62 62 62 61 59 58
41 42 43 41 40 39 38 36 40 40 43 47 44 41 56 60 61 62 64 65 66 67 66 67 68 68 69 69 68 67 66 65 63 62 61 61 60 60 61 62 62 62 61 61 60 61 60 59 58
40 40 41 43 42 39 37 36 39 38 47 48 43 42 40 60 60 60 63 64 65 65 67 68 68 69 69 69 68 67 67 66 64 62 61 60 60 60 61 61 61 61 61 60 60 60 59 58 58
39 38 39 40 39 38 38 36 37 38 43 44 44 41 37 51 61 61 63 64 65 65 66 67 68 68 68 68 68 68 68 67 65 63 62 61 59 59 61 61 60 60 60 60 59 59 58 58 57
36 36 35 39 39 39 36 33 36 38 37 36 39 40 36 48 60 61 62 64 65 65 65 66 66 66 67 67 67 66 67 67 66 65 64 62 59 58 59 60 60 60 60 59 58 58 57 57 57
34 29 32 34 39 38 35 33 35 38 37 36 35 37 36 36 44 61 62 62 63 64 65 65 65 63 66 65 64 63 63 64 65 65 64 62 60 57 57 57 58 58 58 58 58 57 56 56 55
29 28 31 31 37 37 36 33 34 35 36 36 36 35 36 36 36 53 62 62 63 63 64 65 65 64 63 64 63 63 59 59 60 63 64 62 61 57 55 55 55 56 57 57 56 56 55 55 55
30 30 31 33 35 36 35 34 35 35 34 34 34 35 35 36 36 36 50 62 62 62 63 64 64 64 64 63 63 62 62 60 59 59 61 62 61 59 55 55 54 55 56 56 56 55 55 54 53
36 27 31 33 33 36 36 35 37 36 35 33 33 33 34 35 34 34 34 47 60 61 62 63 64 63 64 64 63 63 62 62 61 60 59 59 60 59 58 56 54 54 54 55 55 55 54 55 52
35 29 30 30 33 33 33 31 35 36 36 36 35 34 33 33 33 33 32 36 51 59 61 63 64 64 64 63 63 62 62 62 62 61 61 60 60 59 59 58 57 54 54 54 54 55 54 54 53
30 36 31 29 29 27 31 23 28 33 35 35 36 35 34 32 32 31 31 31 40 52 55 60 62 63 63 63 63 62 62 62 62 62 62 62 63 62 60 59 58 58 55 54 54 54 54 54 53
31 36 36 36 31 26 27 26 27 30 31 31 33 34 35 33 32 31 35 38 40 40 41 46 51 53 54 62 63 62 61 61 60 61 61 61 62 63 63 61 59 58 57 56 55 55 55 55 54
32 34 37 37 34 24 26 27 25 26 29 31 32 33 34 33 33 32 41 43 43 42 41 39 40 40 42 56 61 61 62 59 58 59 59 60 60 61 61 62 61 59 58 57 57 56 56 56 56
33 31 27 26 26 22 28 28 26 29 26 29 31 31 32 33 33 38 42 42 41 41 41 42 42 42 42 43 42 44 49 53 53 53 53 56 58 59 60 60 61 61 61 60 59 58 57 57 57
33 31 28 21 20 22 28 25 26 27 28 27 26 27 28 33 37 40 42 41 40 40 40 41 41 42 43 43 43 44 44 44 43 43 44 49 54 56 58 60 60 60 60 60 60 59 60 59 58
32 29 34 21 21 20 26 26 25 28 31 31 29 32 32 38 40 41 42 40 40 39 40 40 42 44 44 45 45 45 45 45 44 45 46 47 51 56 56 57 57 58 59 59 58 57 57 55 51
33 31 27 27 20 15 19 21 21 26 28 32 33 35 37 40 41 42 40 39 39 39 39 41 43 43 43 44 44 44 45 45 47 48 48 49 50 51 52 54 55 55 55 55 55 51 50 48 46
33 31 32 32 24 15 16 22 26 24 29 31 34 36 39 40 41 40 39 39 38 38 39 42 42 43 43 43 43 43 43 43 44 45 46 47 48 49 49 48 48 48 49 49 47 46 45 44 42
34 32 29 22 20 18 16 19 25 26 26 33 35 38 39 41 40 38 38 37 37 37 38 41 42 42 42 42 40 38 38 37 37 37 40 44 42 40 40 39 40 41 42 43 43 42 41 40 40
Lifted_Index
0 0 0 1 2 4 5 6 6 5 5 5 4 3 3 2 1 -0 -1 -2 -3 -4 -4 -5 -5 -5 -5 -4 -4 -4 -3 -3 -3 -2 -1 -1 -0 0 1 2 3 4 5 6 6 6 6 5 5
0 1 0 1 2 4 5 5 5 5 4 4 4 3 1 0 -1 -2 -2 -3 -3 -4 -4 -5 -5 -5 -5 -5 -4 -4 -3 -3 -3 -2 -1 -1 -0 0 1 2 3 4 5 5 6 6 5 5 4
0 0 0 1 2 3 4 5 4 4 4 4 4 2 -0 -1 -2 -3 -3 -4 -4 -4 -5 -5 -5 -5 -5 -5 -4 -4 -4 -3 -3 -2 -1 -0 0 0 1 1 2 4 5 5 5 5 4 4 4
0 1 0 1 2 3 4 4 4 4 4 4 4 2 -1 -2 -3 -4 -4 -4 -5 -5 -5 -5 -5 -5 -5 -5 -4 -4 -4 -3 -3 -2 -1 0 1 1 1 1 2 3 4 5 5 4 4 4 4
1 1 1 1 2 3 3 3 3 3 3 4 3 1 -2 -3 -4 -5 -5 -5 -5 -5 -5 -5 -5 -6 -5 -5 -4 -4 -3 -3 -2 -1 -0 0 1 1 1 1 2 3 4 4 4 4 4 4 4
1 1 2 2 2 3 2 2 2 2 3 4 3 1 -2 -3 -5 -5 -5 -5 -5 -5 -5 -5 -5 -5 -5 -5 -4 -4 -3 -2 -2 -1 -0 0 1 1 1 1 2 3 4 4 4 4 4 4 4
1 2 2 2 2 2 2 2 1 1 2 3 3 1 -2 -4 -5 -5 -5 -5 -5 -5 -5 -5 -5 -5 -4 -4 -4 -3 -2 -2 -1 -1 0 0 0 1 1 1 2 3 3 3 3 3 3 4 4
1 2 3 3 2 2 1 1 1 1 2 3 3 2 -1 -3 -5 -5 -5 -4 -5 -5 -5 -5 -4 -4 -4 -4 -3 -3 -2 -1 -0 0 0 0 0 0 0 1 1 2 2 2 3 3 3 3 4
1 2 3 3 2 1 1 1 1 1 2 2 3 1 -1 -3 -4 -5 -5 -5 -4 -4 -4 -4 -4 -4 -3 -3 -3 -2 -1 -0 0 0 0 0 0 0 1 1 1 1 2 2 2 2 3 3 4
1 2 4 3 2 0 1 1 1 1 2 2 2 0 -2 -3 -4 -5 -5 -5 -5 -4 -4 -4 -4 -4 -3 -3 -2 -1 -1 0 1 1 1 0 1 1 1 1 1 1 2 2 2 2 3 4 4
2 3 3 2 1 0 1 1 1 1 2 2 2 0 -2 -3 -4 -4 -5 -5 -5 -5 -4 -4 -4 -4 -3 -3 -2 -1 -0 0 1 1 1 1 1 1 1 1 1 2 2 2 2 3 4 5 5
2 3 2 2 1 0 0 1 1 2 1 2 2 1 -1 -3 -4 -4 -5 -5 -5 -5 -5 -4 -4 -4 -3 -3 -2 -2 -1 0 1 2 2 2 2 2 2 1 2 2 2 3 3 3 4 5 6
2 2 2 1 0 0 0 1 1 2 2 2 2 2 0 -2 -3 -4 -4 -4 -5 -5 -5 -5 -5 -4 -4 -3 -3 -2 -1 0 1 2 2 3 3 3 2 2 2 2 2 3 3 4 5 6 6
2 2 2 1 0 0 0 1 1 2 2 2 2 2 1 -1 -3 -3 -4 -4 -4 -4 -5 -5 -5 -5 -4 -4 -3 -2 -2 -1 0 1 2 2 3 3 3 2 2 2 2 3 3 4 5 5 6
2 2 2 1 1 1 1 1 2 2 2 2 2 2 2 -0 -2 -3 -4 -4 -4 -4 -4 -5 -5 -5 -4 -4 -3 -3 -2 -1 -1 0 0 1 2 3 3 3 3 2 3 3 3 4 4 5 5
2 2 2 1 1 1 1 1 2 2 2 2 2 2 1 -0 -2 -4 -4 -5 -5 -5 -4 -5 -5 -5 -4 -4 -4 -3 -3 -2 -2 -1 -1 -0 0 1 2 2 3 3 3 3 3 4 4 4 4
3 3 3 2 1 1 1 1 1 2 2 2 2 1 1 0 -2 -4 -4 -5 -5 -5 -5 -5 -5 -5 -4 -4 -4 -3 -3 -2 -2 -2 -2 -1 -1 0 1 2 2 3 3 3 3 3 3 3 3
3 4 3 2 2 1 1 1 1 1 1 1 1 1 1 1 -1 -3 -5 -5 -5 -5 -5 -5 -5 -5 -5 -4 -4 -4 -3 -2 -2 -2 -2 -2 -1 -1 0 1 1 2 3 3 3 3 3 3 3
3 3 3 2 2 1 1 1 1 1 1 1 1 1 1 1 0 -1 -3 -5 -5 -5 -5 -6 -5 -5 -5 -4 -4 -4 -3 -3 -2 -2 -2 -2 -1 -1 -0 1 1 1 2 2 2 2 2 3 3
2 3 3 2 2 1 1 1 1 1 1 1 1 1 1 1 1 1 -1 -3 -4 -5 -5 -5 -5 -5 -5 -4 -4 -4 -3 -3 -3 -2 -2 -2 -1 -1 -0 0 0 0 0 1 1 1 2 2 2
2 2 2 2 2 2 1 1 1 2 2 2 2 2 2 2 2 2 1 0 -1 -4 -5 -5 -5 -5 -5 -5 -4 -4 -4 -4 -3 -3 -3 -2 -2 -1 -1 -1 -1 -1 -0 -0 -0 0 1 1 1
1 1 1 2 2 2 2 2 2 2 2 2 2 2 2 2 2 2 2 2 1 -1 -4 -5 -5 -5 -5 -5 -5 -4 -4 -4 -4 -4 -3 -3 -2 -2 -2 -2 -2 -1 -1 -1 -1 -1 -0 0 0
1 1 1 1 2 3 3 3 2 3 3 3 3 3 3 3 3 3 2 2 2 1 -1 -4 -5 -6 -6 -5 -5 -4 -4 -4 -4 -4 -4 -3 -3 -3 -2 -2 -2 -2 -2 -1 -1 -1 -1 -1 -0
2 1 1 1 1 2 3 3 3 3 3 3 3 3 3 3 3 3 3 3 2 2 1 -2 -4 -5 -5 -5 -5 -4 -4 -4 -4 -3 -3 -3 -3 -3 -2 -2 -2 -2 -2 -2 -1 -1 -1 -1 -1
2 2 1 0 1 1 2 3 3 3 3 3 3 3 3 3 3 3 3 3 3 3 2 0 -2 -3 -3 -3 -3 -2 -2 -2 -1 -1 -2 -1 -1 -1 -1 -1 -2 -2 -2 -1 -1 -1 -1 -0 -0
2 2 1 0 1 1 2 2 3 3 3 3 3 3 3 3 3 3 3 3 4 4 3 2 1 0 0 0 1 1 2 2 2 2 2 2 2 2 1 -0 -1 -1 -1 -1 -0 0 1 1 1
2 2 1 0 1 1 2 2 3 3 3 3 3 3 3 4 4 4 3 3 3 4 4 4 3 3 3 3 3 3 4 5 5 5 5 5 5 4 2 1 -1 -1 -1 -1 0 1 2 3 3
3 2 1 1 1 1 1 2 2 3 3 3 3 3 3 3 4 4 3 3 3 4 4 5 5 5 5 5 5 5 5 6 6 7 7 7 7 5 4 2 1 -0 -0 0 1 2 3 4 4
3 3 2 2 1 1 1 2 2 2 3 3 3 3 3 3 3 3 3 3 4 4 4 5 5 5 6 6 6 6 6 6 7 7 7 8 7 7 6 4 3 2 2 2 2 3 4 4 5
3 3 3 2 1 2 2 2 2 2 2 2 3 3 3 3 3 3 3 3 4 4 5 5 5 6 6 6 6 6 6 6 6 7 7 8 8 8 7 6 5 4 3 3 3 3 4 5 6